Regional Weather Roundup
Issued by NWS

Home | Current Version | Previous Version | Text Only | Print | Product List | Glossary On
Versions: 1 2 3 4 5 6 7 8 9 10 11 12 13 14 15 16 17 18 19 20 21 22 23 24 25 26 27 28 29 30 31 32 33 34 35 36 37 38 39 40 41 42 43 44 45 46 47 48 49 50
000
ASUS44 KFWD 040315
RWRTX
NORTH TEXAS HOURLY WEATHER ROUNDUP
NATIONAL WEATHER SERVICE FORT WORTH TX
1000 PM CDT MON AUG 03 2015

NOTE: "FAIR" INDICATES FEW OR NO CLOUDS BELOW 12,000 FEET WITH NO
SIGNIFICANT WEATHER AND/OR OBSTRUCTIONS TO VISIBILITY.

TXZ118-119-040400-
DALLAS/FORT WORTH METROPLEX

CITY           SKY/WX    TMP DP  RH WIND       PRES   REMARKS
DFW AIRPORT    PTCLDY    89  59  36 SE8       29.88R
DALLAS LOVE    PTCLDY    91  61  36 SE13      29.88R HX  91
FTW MEACHAM    CLEAR     92  60  34 SE10      29.88R HX  91
DAL-EXECUTIVE  CLEAR     88  61  40 SE7       29.89R
FTW-ALLIANCE   PTCLDY    89  60  37 SE7       29.88R
FTW-NAS-JRB    PTCLDY    92  59  33 SE10      29.88R HX  91
FTW-SPINKS     CLEAR     85  60  44 SE3       29.90R
ARLINGTON      CLEAR     90  60  36 SE8       29.89R
GRAND PRAIRIE  CLEAR     89  61  39 E5        29.90R
ADDISON        PTCLDY    91  57  31 SE12      29.89R HX  90
MESQUITE       CLEAR     86  62  43 SE3       29.89S
LANCASTER      CLEAR     84  60  43 SE3       29.89S
$$

TXZ091>094-102>105-117-120-121-131>134-040400-
NORTH CENTRAL TEXAS

CITY           SKY/WX    TMP DP  RH WIND       PRES   REMARKS
SHRMAN/DENISON CLOUDY    90  64  41 CALM      29.91R HX  91
GAINESVILLE    MOCLDY    87  61  41 E7        29.92R
BOWIE          MOCLDY    83  63  51 CALM      29.90S
DECATUR        PTCLDY    87  58  37 SE8       29.91R
DENTON         PTCLDY    88  62  41 SE8       29.88R
MCKINNEY       PTCLDY    87  64  46 SE5       29.89R
GREENVILLE     PTCLDY    86  63  45 SE3       29.90R
ROCKWALL       CLEAR     87  63  44 SE5       29.89R
TERRELL        CLEAR     87  63  44 SE5       29.89R
WAXAHACHIE     CLEAR     86  63  45 CALM      29.91R
CLEBURNE       CLEAR     88  61  40 SE8       29.91R
GRANBURY       CLEAR     90  60  37 SE5       29.90R
$$

TXZ083>090-098>101-113>116-127>130-139>142-154-155-040400-
WESTERN NORTH TEXAS

CITY           SKY/WX    TMP DP  RH WIND       PRES   REMARKS
WICHITA FALLS  PTCLDY    82  69  64 E8        29.89R
WF-KICKAPOO    PTCLDY    83  68  60 E6        29.90R
VERNON         MOCLDY    82  68  62 E5        29.91R
ABILENE        CLEAR     88  62  41 SE13      29.92R
ABILENE-DYESS  CLEAR     89  64  44 SE10      29.91R HX  90
BRECKENRIDGE   CLEAR     87  62  42 SE8       29.90R
GRAHAM         CLEAR     82  67  59 E5        29.88R
MINERAL WELLS  PTCLDY    82  66  58 SE5       29.88R
STEPHENVILLE   CLEAR     84  59  42 SE6       29.94R
COMANCHE       CLEAR     85  59  41 SE8       29.92R
COLEMAN        CLEAR     85  62  46 SE6       29.92R
BRADY          CLEAR     88  57  35 SE8       29.93R
$$

TXZ143>147-156>162-174-175-040400-
CENTRAL TEXAS

CITY           SKY/WX    TMP DP  RH WIND       PRES   REMARKS
WACO           CLEAR     84  62  47 SE6       29.88R
WACO-TSTC      CLEAR     84  59  42 CALM      29.89R
HILLSBORO      CLEAR     87  58  37 E7        29.90R
CORSICANA      CLEAR     86  65  49 SE6       29.90R
MEXIA          CLEAR     83  64  52 E13       29.89R
HEARNE         CLEAR     81  68  63 CALM      29.89R
CAMERON        CLEAR     85  65  51 S6        29.88R
TEMPLE         CLEAR     86  61  42 SE9       29.90R
KILLEEN        CLEAR     83  60  45 SE8       29.90R
KILLEEN-SKYLRK   N/A    N/A N/A N/A MISG        N/A
FORT HOOD      CLEAR     86  62  43 SE7       29.89R
GATESVILLE     CLEAR     84  63  48 CALM      29.92R
HAMILTON       CLEAR     86  57  37 SE8       29.92S
$$

TXZ095>097-106>112-122>126-135>138-148>153-164>167-040400-
EAST TEXAS

CITY           SKY/WX    TMP DP  RH WIND       PRES   REMARKS
PARIS          MOCLDY    84  63  48 SE7       29.91R
SULPHUR SPRNGS PTCLDY    84  63  48 SE5       29.92R
MOUNT PLEASANT CLEAR     83  63  52 CALM      29.91R
GILMER         CLEAR     81  64  56 CALM      29.90R
MINEOLA        CLEAR     81  66  61 CALM      29.90R
TYLER          CLEAR     85  63  47 SE6       29.90R
LONGVIEW       FAIR      82  67  60 NE3       29.89R
MARSHALL       CLEAR     82  68  61 CALM      29.92R
ATHENS         CLEAR     79  64  61 CALM      29.89R
PALESTINE      CLEAR     80  65  61 CALM      29.90R
JACKSONVILLE   CLEAR     86  61  43 CALM      29.93R
HENDERSON      CLEAR     79  67  66 CALM      29.91R
CENTER         FAIR      81  70  68 CALM      29.89R
NACOGDOCHES    CLEAR     79  70  73 CALM      29.89R
LUFKIN         CLEAR     80  68  66 CALM      29.88R
$$

SUPPLEMENTAL OBSERVATIONS (CENTRAL)

CITY           SKY/WX    TMP DP  RH WIND       PRES   REMARKS
LAKE TEXOMA      N/A     84  72  65 SE2         N/A
CADDO GRASSLND   N/A     82  63  51 SE2         N/A
PAT MAYSE LAKE   N/A    N/A N/A N/A E7          N/A
GREENVILLE       N/A     86  61  42 SE3         N/A
CEDAR HILL       N/A     84  59  42 SE3         N/A
ATHENS           N/A     86  63  45 S2          N/A
LAKE LIMESTONE   N/A     81  63  54 E1          N/A
MCGREGOR         N/A     86  61  42 S8          N/A
$$

SUPPLEMENTAL OBSERVATIONS (WEST)

CITY           SKY/WX    TMP DP  RH WIND       PRES   REMARKS
MILLERS CREEK    N/A     84  66  54 E6          N/A
LBJ GRASSLAND    N/A    N/A N/A N/A E6          N/A
GRANBURY         N/A     90  61  37 SE7         N/A
COMANCHE         N/A     84  55  37 SE9         N/A
HAMBY            N/A     84  61  45 SE7         N/A
IVIE RESERVOIR   N/A     88  57  35 SE9         N/A
COLORADO BEND    N/A     84  55  37 S7          N/A
$$

SUPPLEMENTAL OBSERVATIONS (EAST)

CITY           SKY/WX    TMP DP  RH WIND       PRES   REMARKS
TEXARKANA        N/A     75  72  88 CALM        N/A
LINDEN           N/A     81  66  61 CALM        N/A
HENDERSON        N/A     79  63  57 CALM        N/A
LUFKIN           N/A     79  72  78 MISG        N/A
N SABINE NF      N/A     79  68  69 MISG        N/A
$$

SUPPLEMENTAL OBSERVATIONS ARE A COLLECTION OF AUTOMATED INSTRUMENTS
THAT ARE MAINTAINED BY A VARIETY OF FEDERAL AND STATE AGENCIES.
CERTAIN ELEMENTS...SUCH AS HUMIDITY VALUES AND SUSTAINED WIND
SPEEDS...MAY BE APPROXIMATED.




USA.gov is the U.S. government's official web portal to all federal, state and local government web resources and services.